Zurück zum Katalog

YAOGAN-39 04B

AktivMilitärVLEO
NORAD 58143·PAYLOAD·🇨🇳 China

Gestartet Oct 23, 2023 von Xichang Satellite Launch Center

Loading…

Nächste Überflüge (nächste 24 Stunden)

TLE

AktuellSource: Space-Track

Epoche: Sep 14, 2026, 23:10 UTC

1 58143U 23163C   26257.96577619  .00004784  00000-0  24006-3 0  9996
2 58143  34.9932 169.4525 0010696 287.9689  71.9857 15.16678663160953

Verfolge YAOGAN-39 04B in Echtzeit mit AllMySat

Download on the App Store